,,PA_Meas_PMT16A,,PR_Meas_QMR101_102,,RH_Meas_QMH101,,SR_Meas_QMS101,,TA_Meas_QMH101,,GenWind,,GenWind,
time,status,PA,status,PR,status,RH,status,SR,status,TA,status,DirAvg,status,SpdAvg,
2013-08-03, 00:00:05,VALID,918.698,VALID,0,VALID,94.2178,VALID,0.107441,VALID,18.6708,VALID,131,VALID,0,
2013-08-03, 00:01:05,VALID,918.737,VALID,0,VALID,93.9205,VALID,0,VALID,18.7098,VALID,131,VALID,0,
2013-08-03, 00:02:05,VALID,918.711,VALID,0,VALID,93.4097,VALID,0,VALID,18.7488,VALID,125,VALID,0,
2013-08-03, 00:03:05,VALID,918.737,VALID,0,VALID,92.8456,VALID,0,VALID,18.8254,VALID,125,VALID,0,
2013-08-03, 00:04:05,VALID,918.711,VALID,0,VALID,92.2738,VALID,0.107441,VALID,18.8449,VALID,125,VALID,0,
2013-08-03, 00:05:05,VALID,918.685,VALID,0,VALID,92.0756,VALID,0,VALID,18.8268,VALID,125,VALID,0,
2013-08-03, 00:06:05,VALID,918.754,VALID,0,VALID,92.1519,VALID,0,VALID,18.8268,VALID,125,VALID,0,
2013-08-03, 00:07:05,VALID,918.732,VALID,0,VALID,92.1214,VALID,0,VALID,18.8073,VALID,125,VALID,0,
2013-08-03, 00:08:05,VALID,918.725,VALID,0,VALID,92.0985,VALID,0.107441,VALID,18.7474,VALID,125,VALID,0,
2013-08-03, 00:09:05,VALID,918.765,VALID,0,VALID,92.0375,VALID,0,VALID,18.7279,VALID,125,VALID,0,
2013-08-03, 00:10:05,VALID,918.745,VALID,0,VALID,91.9536,VALID,0,VALID,18.7279,VALID,125,VALID,0,
2013-08-03, 00:11:05,VALID,918.708,VALID,0,VALID,91.5267,VALID,0,VALID,18.7279,VALID,125,VALID,0,
2013-08-03, 00:12:05,VALID,918.698,VALID,0,VALID,91.1227,VALID,0,VALID,18.7084,VALID,125,VALID,0,
2013-08-03, 00:13:05,VALID,918.721,VALID,0,VALID,91.1303,VALID,0,VALID,18.6499,VALID,125,VALID,0,
2013-08-03, 00:14:05,VALID,918.709,VALID,0,VALID,91.3057,VALID,0,VALID,18.6513,VALID,125,VALID,0,
2013-08-03, 00:15:05,VALID,918.705,VALID,0,VALID,91.1303,VALID,0.107441,VALID,18.6499,VALID,125,VALID,0,
2013-08-03, 00:16:05,VALID,918.712,VALID,0,VALID,90.8254,VALID,0.107441,VALID,18.6903,VALID,125,VALID,0,
2013-08-03, 00:17:05,VALID,918.69,VALID,0,VALID,90.5967,VALID,0.107441,VALID,18.7293,VALID,125,VALID,0,
2013-08-03, 00:18:05,VALID,918.695,VALID,0,VALID,90.4442,VALID,0,VALID,18.7279,VALID,125,VALID,0,
2013-08-03, 00:19:05,VALID,918.691,VALID,0,VALID,90.3985,VALID,0.107441,VALID,18.7293,VALID,125,VALID,0,
2013-08-03, 00:20:05,VALID,918.647,VALID,0,VALID,90.1012,VALID,0,VALID,18.6694,VALID,125,VALID,0,
2013-08-03, 00:21:05,VALID,918.669,VALID,0,VALID,90.2612,VALID,0.107441,VALID,18.6333,VALID,125,VALID,0,
2013-08-03, 00:22:05,VALID,918.667,VALID,0,VALID,90.2994,VALID,0.107441,VALID,18.5525,VALID,125,VALID,0,
2013-08-03, 00:23:05,VALID,918.702,VALID,0,VALID,89.9182,VALID,0,VALID,18.6708,VALID,96,VALID,0,
2013-08-03, 00:24:05,VALID,918.691,VALID,0,VALID,89.2931,VALID,0.107441,VALID,18.7279,VALID,99,VALID,0,
2013-08-03, 00:25:05,VALID,918.718,VALID,0,VALID,88.9424,VALID,0.107441,VALID,18.6889,VALID,160,VALID,0,
2013-08-03, 00:26:05,VALID,918.699,VALID,0,VALID,89.659,VALID,0,VALID,18.6124,VALID,164,VALID,0,
2013-08-03, 00:27:05,VALID,918.701,VALID,0,VALID,90.7491,VALID,0,VALID,18.5734,VALID,157,VALID,0,
2013-08-03, 00:28:05,VALID,918.691,VALID,0,VALID,90.9245,VALID,0,VALID,18.5734,VALID,110,VALID,0,
2013-08-03, 00:29:05,VALID,918.711,VALID,0,VALID,89.6209,VALID,0,VALID,18.7293,VALID,97,VALID,0,
2013-08-03, 00:30:05,VALID,918.689,VALID,0,VALID,88.1496,VALID,0,VALID,18.8254,VALID,102,VALID,0,
2013-08-03, 00:31:05,VALID,918.673,VALID,0,VALID,87.5016,VALID,0,VALID,18.9633,VALID,106,VALID,0,
2013-08-03, 00:32:05,VALID,918.623,VALID,0,VALID,87.6312,VALID,0,VALID,18.9828,VALID,107,VALID,0,
2013-08-03, 00:33:05,VALID,918.635,VALID,0,VALID,88.241,VALID,0,VALID,18.9243,VALID,107,VALID,0,
2013-08-03, 00:34:05,VALID,918.634,VALID,0,VALID,88.7671,VALID,0,VALID,18.8658,VALID,106,VALID,0,
2013-08-03, 00:35:05,VALID,918.63,VALID,0,VALID,89.3236,VALID,0,VALID,18.8268,VALID,107,VALID,0,
2013-08-03, 00:36:05,VALID,918.632,VALID,0,VALID,89.9258,VALID,0,VALID,18.7878,VALID,107,VALID,0,
2013-08-03, 00:37:05,VALID,918.589,VALID,0,VALID,89.8801,VALID,0,VALID,18.7098,VALID,106,VALID,0,
2013-08-03, 00:38:05,VALID,918.607,VALID,0,VALID,90.5281,VALID,0,VALID,18.6109,VALID,107,VALID,0,
2013-08-03, 00:39:05,VALID,918.588,VALID,0,VALID,90.8711,VALID,0,VALID,18.5525,VALID,107,VALID,0,
2013-08-03, 00:40:05,VALID,918.58,VALID,0,VALID,91.298,VALID,0,VALID,18.5525,VALID,106,VALID,0,
2013-08-03, 00:41:05,VALID,918.571,VALID,0,VALID,91.1303,VALID,0,VALID,18.572,VALID,106,VALID,0,
2013-08-03, 00:42:05,VALID,918.523,VALID,0,VALID,90.772,VALID,0,VALID,18.6109,VALID,107,VALID,0,
2013-08-03, 00:43:05,VALID,918.486,VALID,0,VALID,90.6119,VALID,0,VALID,18.6304,VALID,107,VALID,0,
2013-08-03, 00:44:05,VALID,918.459,VALID,0,VALID,90.3604,VALID,0,VALID,18.6499,VALID,107,VALID,0,
2013-08-03, 00:45:05,VALID,918.43,VALID,0,VALID,90.1545,VALID,0,VALID,18.6903,VALID,107,VALID,0,
2013-08-03, 00:46:05,VALID,918.419,VALID,0,VALID,89.7962,VALID,0,VALID,18.6708,VALID,106,VALID,0,
2013-08-03, 00:47:05,VALID,918.417,VALID,0,VALID,89.4989,VALID,0,VALID,18.6889,VALID,106,VALID,0,
2013-08-03, 00:48:05,VALID,918.387,VALID,0,VALID,89.3388,VALID,0,VALID,18.7098,VALID,106,VALID,0,
2013-08-03, 00:49:05,VALID,918.407,VALID,0,VALID,89.2321,VALID,0,VALID,18.6903,VALID,107,VALID,0,
2013-08-03, 00:50:05,VALID,918.402,VALID,0,VALID,89.1863,VALID,0,VALID,18.6694,VALID,106,VALID,0,
2013-08-03, 00:51:05,VALID,918.39,VALID,0,VALID,89.194,VALID,0,VALID,18.6903,VALID,107,VALID,0,
2013-08-03, 00:52:05,VALID,918.37,VALID,0,VALID,89.1101,VALID,0,VALID,18.7098,VALID,107,VALID,0,
2013-08-03, 00:53:05,VALID,918.379,VALID,0,VALID,89.1406,VALID,0,VALID,18.7098,VALID,106,VALID,0,
2013-08-03, 00:54:05,VALID,918.39,VALID,0,VALID,89.2016,VALID,0,VALID,18.7098,VALID,106,VALID,0,
2013-08-03, 00:55:05,VALID,918.403,VALID,0,VALID,89.3083,VALID,0,VALID,18.7098,VALID,107,VALID,0,
2013-08-03, 00:56:05,VALID,918.426,VALID,0,VALID,89.2245,VALID,0,VALID,18.7084,VALID,107,VALID,0,
2013-08-03, 00:57:05,VALID,918.412,VALID,0,VALID,88.7594,VALID,0,VALID,18.7279,VALID,107,VALID,0,
2013-08-03, 00:58:05,VALID,918.371,VALID,0,VALID,89.0872,VALID,0,VALID,18.7084,VALID,107,VALID,0,
2013-08-03, 00:59:05,VALID,918.349,VALID,0,VALID,89.4837,VALID,0,VALID,18.6319,VALID,106,VALID,0,
2013-08-03, 01:00:05,VALID,918.315,VALID,0,VALID,90.0554,VALID,0,VALID,18.5539,VALID,125,VALID,0,
2013-08-03, 01:01:05,VALID,918.316,VALID,0,VALID,90.4366,VALID,0,VALID,18.5344,VALID,125,VALID,0,
2013-08-03, 01:02:05,VALID,918.313,VALID,0,VALID,90.6195,VALID,0,VALID,18.4954,VALID,125,VALID,0,
2013-08-03, 01:03:05,VALID,918.353,VALID,0,VALID,90.7873,VALID,0,VALID,18.4564,VALID,125,VALID,0,
2013-08-03, 01:04:05,VALID,918.323,VALID,0,VALID,90.9855,VALID,0,VALID,18.4369,VALID,125,VALID,0,
2013-08-03, 01:05:05,VALID,918.289,VALID,0,VALID,91.3514,VALID,0,VALID,18.3965,VALID,125,VALID,0,
2013-08-03, 01:06:05,VALID,918.281,VALID,0,VALID,91.9003,VALID,0,VALID,18.4564,VALID,125,VALID,0,
2013-08-03, 01:07:05,VALID,918.286,VALID,0,VALID,92.007,VALID,0,VALID,18.4954,VALID,125,VALID,0,
2013-08-03, 01:08:05,VALID,918.214,VALID,0,VALID,91.0617,VALID,0,VALID,18.3965,VALID,125,VALID,0,
2013-08-03, 01:09:05,VALID,918.193,VALID,0,VALID,91.1837,VALID,0,VALID,18.3589,VALID,125,VALID,0,
2013-08-03, 01:10:05,VALID,918.158,VALID,0,VALID,91.4505,VALID,0,VALID,18.299,VALID,125,VALID,0,
2013-08-03, 01:11:05,VALID,918.169,VALID,0,VALID,91.7173,VALID,0,VALID,18.299,VALID,125,VALID,0,
2013-08-03, 01:12:05,VALID,918.182,VALID,0,VALID,91.7631,VALID,0,VALID,18.299,VALID,125,VALID,0,
2013-08-03, 01:13:05,VALID,918.198,VALID,0,VALID,91.7173,VALID,0,VALID,18.3185,VALID,125,VALID,0,
2013-08-03, 01:14:05,VALID,918.172,VALID,0,VALID,91.0388,VALID,0,VALID,18.3589,VALID,125,VALID,0,
2013-08-03, 01:15:05,VALID,918.21,VALID,0,VALID,90.1393,VALID,0,VALID,18.4759,VALID,125,VALID,0,
2013-08-03, 01:16:05,VALID,918.175,VALID,0,VALID,89.6819,VALID,0,VALID,18.5149,VALID,125,VALID,0,
2013-08-03, 01:17:05,VALID,918.161,VALID,0,VALID,89.9106,VALID,0,VALID,18.4954,VALID,125,VALID,0,
2013-08-03, 01:18:05,VALID,918.108,VALID,0,VALID,90.1621,VALID,0,VALID,18.416,VALID,125,VALID,0,
2013-08-03, 01:19:05,VALID,918.097,VALID,0,VALID,90.3985,VALID,0,VALID,18.4174,VALID,125,VALID,0,
2013-08-03, 01:20:05,VALID,918.089,VALID,0,VALID,90.4518,VALID,0,VALID,18.3784,VALID,125,VALID,0,
2013-08-03, 01:21:05,VALID,918.079,VALID,0,VALID,90.5662,VALID,0,VALID,18.3589,VALID,125,VALID,0,
2013-08-03, 01:22:05,VALID,918.042,VALID,0,VALID,90.5586,VALID,0,VALID,18.3589,VALID,125,VALID,0,
2013-08-03, 01:23:05,VALID,918.015,VALID,0,VALID,90.5509,VALID,0,VALID,18.3394,VALID,125,VALID,0,
2013-08-03, 01:24:05,VALID,917.987,VALID,0,VALID,90.6195,VALID,0,VALID,18.3394,VALID,125,VALID,0,
2013-08-03, 01:25:05,VALID,917.964,VALID,0,VALID,90.5814,VALID,0,VALID,18.3394,VALID,125,VALID,0,
2013-08-03, 01:26:05,VALID,917.959,VALID,0,VALID,90.3985,VALID,0,VALID,18.338,VALID,125,VALID,0,
2013-08-03, 01:27:05,VALID,917.964,VALID,0,VALID,90.2917,VALID,0,VALID,18.3185,VALID,125,VALID,0,
2013-08-03, 01:28:05,VALID,917.948,VALID,0,VALID,90.4518,VALID,0,VALID,18.3004,VALID,125,VALID,0,
2013-08-03, 01:29:05,VALID,917.967,VALID,0,VALID,90.4518,VALID,0,VALID,18.299,VALID,125,VALID,0,
2013-08-03, 01:30:05,VALID,917.949,VALID,0,VALID,90.5357,VALID,0,VALID,18.3199,VALID,125,VALID,0,
2013-08-03, 01:31:05,VALID,917.952,VALID,0,VALID,90.6424,VALID,0,VALID,18.2796,VALID,125,VALID,0,
2013-08-03, 01:32:05,VALID,917.914,VALID,0,VALID,90.711,VALID,0,VALID,18.2796,VALID,125,VALID,0,
2013-08-03, 01:33:04,VALID,917.912,VALID,0,VALID,90.7415,VALID,0,VALID,18.2601,VALID,125,VALID,0,
2013-08-03, 01:34:04,VALID,917.876,VALID,0,VALID,90.8101,VALID,0,VALID,18.2406,VALID,125,VALID,0,
2013-08-03, 01:35:04,VALID,917.888,VALID,0,VALID,90.8483,VALID,0,VALID,18.242,VALID,125,VALID,0,
2013-08-03, 01:36:04,VALID,917.842,VALID,0,VALID,90.9092,VALID,0,VALID,18.1821,VALID,125,VALID,0,
2013-08-03, 01:37:04,VALID,917.825,VALID,0,VALID,91.1684,VALID,0,VALID,18.1835,VALID,125,VALID,0,
2013-08-03, 01:38:04,VALID,917.808,VALID,0,VALID,91.3133,VALID,0,VALID,18.1835,VALID,125,VALID,0,
2013-08-03, 01:39:04,VALID,917.799,VALID,0,VALID,91.1761,VALID,0,VALID,18.1236,VALID,125,VALID,0,
2013-08-03, 01:40:04,VALID,917.811,VALID,0,VALID,91.3361,VALID,0,VALID,18.1445,VALID,125,VALID,0,
2013-08-03, 01:41:04,VALID,917.821,VALID,0,VALID,91.3285,VALID,0,VALID,18.1445,VALID,125,VALID,0,
2013-08-03, 01:42:04,VALID,917.812,VALID,0,VALID,91.2447,VALID,0,VALID,18.1041,VALID,125,VALID,0,
2013-08-03, 01:43:04,VALID,917.831,VALID,0,VALID,91.298,VALID,0,VALID,18.0846,VALID,125,VALID,0,
2013-08-03, 01:44:04,VALID,917.813,VALID,0,VALID,90.8025,VALID,0,VALID,17.9886,VALID,125,VALID,0,
2013-08-03, 01:45:04,VALID,917.804,VALID,0,VALID,91.3514,VALID,0,VALID,17.9691,VALID,120,VALID,0,
2013-08-03, 01:46:04,VALID,917.777,VALID,0,VALID,91.8622,VALID,0,VALID,17.9899,VALID,115,VALID,0,
2013-08-03, 01:47:04,VALID,917.748,VALID,0,VALID,91.7859,VALID,0,VALID,18.008,VALID,115,VALID,0,
2013-08-03, 01:48:04,VALID,917.743,VALID,0,VALID,91.664,VALID,0,VALID,18.0275,VALID,115,VALID,0,
2013-08-03, 01:49:04,VALID,917.706,VALID,0,VALID,91.5725,VALID,0,VALID,18.008,VALID,115,VALID,0,
2013-08-03, 01:50:04,VALID,917.698,VALID,0,VALID,91.8012,VALID,0,VALID,18.0067,VALID,115,VALID,0,
2013-08-03, 01:51:04,VALID,917.679,VALID,0,VALID,91.7631,VALID,0,VALID,18.0275,VALID,115,VALID,0,
2013-08-03, 01:52:04,VALID,917.642,VALID,0,VALID,91.664,VALID,0,VALID,18.047,VALID,115,VALID,0,
2013-08-03, 01:53:04,VALID,917.624,VALID,0,VALID,91.5344,VALID,0,VALID,18.008,VALID,115,VALID,0,
2013-08-03, 01:54:04,VALID,917.623,VALID,0,VALID,91.3133,VALID,0,VALID,17.9691,VALID,115,VALID,0,
2013-08-03, 01:55:04,VALID,917.544,VALID,0,VALID,91.2447,VALID,0,VALID,17.8911,VALID,116,VALID,0,
2013-08-03, 01:56:04,VALID,917.556,VALID,0,VALID,91.7935,VALID,0,VALID,17.8925,VALID,116,VALID,0,
2013-08-03, 01:57:04,VALID,917.537,VALID,0,VALID,92.2738,VALID,0,VALID,17.8716,VALID,116,VALID,0,
2013-08-03, 01:58:04,VALID,917.559,VALID,0,VALID,92.6855,VALID,0,VALID,17.8521,VALID,116,VALID,0,
2013-08-03, 01:59:04,VALID,917.592,VALID,0,VALID,92.9294,VALID,0,VALID,17.8118,VALID,116,VALID,0,
2013-08-03, 02:00:04,VALID,917.565,VALID,0,VALID,93.059,VALID,0,VALID,17.8131,VALID,116,VALID,0,
2013-08-03, 02:01:04,VALID,917.575,VALID,0,VALID,93.2115,VALID,0,VALID,17.7741,VALID,116,VALID,0,
2013-08-03, 02:02:04,VALID,917.52,VALID,0,VALID,93.2496,VALID,0,VALID,17.7741,VALID,116,VALID,0,
2013-08-03, 02:03:04,VALID,917.522,VALID,0,VALID,93.2649,VALID,0,VALID,17.7547,VALID,116,VALID,0,
2013-08-03, 02:04:04,VALID,917.508,VALID,0,VALID,93.3411,VALID,0,VALID,17.7755,VALID,116,VALID,0,
2013-08-03, 02:05:04,VALID,917.51,VALID,0,VALID,93.4326,VALID,0,VALID,17.7547,VALID,116,VALID,0,
2013-08-03, 02:06:04,VALID,917.483,VALID,0,VALID,93.4936,VALID,0,VALID,17.7352,VALID,116,VALID,0,
2013-08-03, 02:07:04,VALID,917.489,VALID,0,VALID,93.4478,VALID,0,VALID,17.7352,VALID,116,VALID,0,
2013-08-03, 02:08:04,VALID,917.469,VALID,0,VALID,93.4326,VALID,0,VALID,17.6962,VALID,116,VALID,0,
2013-08-03, 02:09:04,VALID,917.478,VALID,0,VALID,93.3564,VALID,0,VALID,17.6767,VALID,116,VALID,0,
2013-08-03, 02:10:04,VALID,917.457,VALID,0,VALID,93.3564,VALID,0,VALID,17.6572,VALID,116,VALID,0,
2013-08-03, 02:11:04,VALID,917.423,VALID,0,VALID,93.3792,VALID,0,VALID,17.6377,VALID,116,VALID,0,
2013-08-03, 02:12:04,VALID,917.399,VALID,0,VALID,93.3487,VALID,0,VALID,17.5987,VALID,116,VALID,0,
2013-08-03, 02:13:04,VALID,917.391,VALID,0,VALID,93.7451,VALID,0,VALID,17.6182,VALID,116,VALID,0,
2013-08-03, 02:14:04,VALID,917.384,VALID,0,VALID,94.1034,VALID,0,VALID,17.6754,VALID,116,VALID,0,
2013-08-03, 02:15:04,VALID,917.355,VALID,0,VALID,94.3245,VALID,0,VALID,17.7352,VALID,116,VALID,0,
2013-08-03, 02:16:04,VALID,917.341,VALID,0,VALID,94.1187,VALID,0,VALID,17.7547,VALID,116,VALID,0,
2013-08-03, 02:17:04,VALID,917.336,VALID,0,VALID,94.073,VALID,0,VALID,17.7352,VALID,116,VALID,0,
2013-08-03, 02:18:04,VALID,917.302,VALID,0,VALID,93.9281,VALID,0,VALID,17.7352,VALID,116,VALID,0,
2013-08-03, 02:19:04,VALID,917.304,VALID,0,VALID,93.7909,VALID,0,VALID,17.6767,VALID,116,VALID,0,
2013-08-03, 02:20:04,VALID,917.279,VALID,0,VALID,93.707,VALID,0,VALID,17.6572,VALID,116,VALID,0,
2013-08-03, 02:21:04,VALID,917.289,VALID,0,VALID,93.707,VALID,0,VALID,17.6169,VALID,116,VALID,0,
2013-08-03, 02:22:04,VALID,917.269,VALID,0,VALID,94.0196,VALID,0.107441,VALID,17.6754,VALID,116,VALID,0,
2013-08-03, 02:23:04,VALID,917.249,VALID,0,VALID,93.9662,VALID,0,VALID,17.7547,VALID,116,VALID,0,
2013-08-03, 02:24:04,VALID,917.227,VALID,0,VALID,93.9967,VALID,0.107441,VALID,17.8326,VALID,117,VALID,0,
2013-08-03, 02:25:04,VALID,917.221,VALID,0,VALID,93.6537,VALID,0,VALID,17.9496,VALID,116,VALID,0,
2013-08-03, 02:26:04,VALID,917.204,VALID,0,VALID,93.1353,VALID,0,VALID,18.0275,VALID,116,VALID,0,
2013-08-03, 02:27:04,VALID,917.155,VALID,0,VALID,92.4263,VALID,0.107441,VALID,18.0665,VALID,116,VALID,0,
2013-08-03, 02:28:04,VALID,917.175,VALID,0,VALID,91.6563,VALID,0,VALID,18.0665,VALID,116,VALID,0,
2013-08-03, 02:29:04,VALID,917.125,VALID,0,VALID,91.2599,VALID,0,VALID,18.0275,VALID,115,VALID,0,
2013-08-03, 02:30:04,VALID,917.104,VALID,0,VALID,91.2828,VALID,0,VALID,17.9677,VALID,115,VALID,0,
2013-08-03, 02:31:04,VALID,917.096,VALID,0,VALID,90.9702,VALID,0,VALID,17.9301,VALID,116,VALID,0,
2013-08-03, 02:32:04,VALID,917.104,VALID,0,VALID,91.2142,VALID,0,VALID,17.8716,VALID,115,VALID,0,
2013-08-03, 02:33:04,VALID,917.081,VALID,0,VALID,91.3514,VALID,0.107441,VALID,17.8521,VALID,115,VALID,0,
2013-08-03, 02:34:04,VALID,917.055,VALID,0,VALID,91.2752,VALID,0,VALID,17.7728,VALID,115,VALID,0,
2013-08-03, 02:35:04,VALID,917.047,VALID,0,VALID,91.4886,VALID,0.107441,VALID,17.7338,VALID,117,VALID,0,
2013-08-03, 02:36:04,VALID,917.06,VALID,0,VALID,91.9155,VALID,0,VALID,17.7157,VALID,117,VALID,0,
2013-08-03, 02:37:04,VALID,917.028,VALID,0,VALID,92.7007,VALID,0,VALID,17.7547,VALID,123,VALID,0,
2013-08-03, 02:38:04,VALID,917.015,VALID,0,VALID,93.0514,VALID,0,VALID,17.8131,VALID,123,VALID,0,
2013-08-03, 02:39:04,VALID,916.983,VALID,0,VALID,92.9828,VALID,0,VALID,17.8326,VALID,123,VALID,0,
2013-08-03, 02:40:04,VALID,917.03,VALID,0,VALID,92.9294,VALID,0,VALID,17.8716,VALID,125,VALID,0,
2013-08-03, 02:41:04,VALID,917.023,VALID,0,VALID,92.8608,VALID,0,VALID,17.9301,VALID,124,VALID,0,
2013-08-03, 02:42:04,VALID,917.005,VALID,0,VALID,92.4492,VALID,0,VALID,17.9886,VALID,124,VALID,0,
2013-08-03, 02:43:04,VALID,917.048,VALID,0,VALID,91.9918,VALID,0,VALID,17.9496,VALID,125,VALID,0,
2013-08-03, 02:44:04,VALID,917.044,VALID,0,VALID,91.7859,VALID,0,VALID,17.9314,VALID,124,VALID,0,
2013-08-03, 02:45:04,VALID,917.008,VALID,0,VALID,91.9003,VALID,0,VALID,17.8702,VALID,125,VALID,0,
2013-08-03, 02:46:04,VALID,917.041,VALID,0,VALID,92.2814,VALID,0,VALID,17.8716,VALID,125,VALID,0,
2013-08-03, 02:47:04,VALID,917.017,VALID,0,VALID,92.5102,VALID,0,VALID,17.8521,VALID,125,VALID,0,
2013-08-03, 02:48:04,VALID,916.989,VALID,0,VALID,92.5864,VALID,0.107441,VALID,17.7923,VALID,125,VALID,0,
2013-08-03, 02:49:04,VALID,916.977,VALID,0,VALID,92.7617,VALID,0.107441,VALID,17.7936,VALID,125,VALID,0,
2013-08-03, 02:50:04,VALID,916.953,VALID,0,VALID,92.8303,VALID,0,VALID,17.7936,VALID,124,VALID,0,
2013-08-03, 02:51:04,VALID,916.952,VALID,0,VALID,92.6779,VALID,0,VALID,17.7338,VALID,125,VALID,0,
2013-08-03, 02:52:04,VALID,916.953,VALID,0,VALID,92.7312,VALID,0,VALID,17.7547,VALID,125,VALID,0,
2013-08-03, 02:53:04,VALID,916.987,VALID,0,VALID,92.8761,VALID,0.107441,VALID,17.7338,VALID,125,VALID,0,
2013-08-03, 02:54:04,VALID,916.991,VALID,0,VALID,93.0133,VALID,0,VALID,17.7352,VALID,125,VALID,0,
2013-08-03, 02:55:04,VALID,916.973,VALID,0,VALID,93.0895,VALID,0,VALID,17.6948,VALID,125,VALID,0,
2013-08-03, 02:56:04,VALID,916.955,VALID,0,VALID,93.0743,VALID,0,VALID,17.6767,VALID,125,VALID,0,
2013-08-03, 02:57:04,VALID,916.947,VALID,0,VALID,93.12,VALID,0.107441,VALID,17.6767,VALID,125,VALID,0,
2013-08-03, 02:58:04,VALID,916.974,VALID,0,VALID,92.9676,VALID,0,VALID,17.6182,VALID,125,VALID,0,
2013-08-03, 02:59:04,VALID,916.978,VALID,0,VALID,93.2268,VALID,0,VALID,17.5779,VALID,124,VALID,0,
2013-08-03, 03:00:04,VALID,916.969,VALID,0,VALID,93.303,VALID,0,VALID,17.5389,VALID,125,VALID,0,
2013-08-03, 03:01:04,VALID,916.981,VALID,0,VALID,93.5164,VALID,0,VALID,17.5194,VALID,125,VALID,0,
2013-08-03, 03:02:04,VALID,916.975,VALID,0,VALID,93.768,VALID,0.107441,VALID,17.5987,VALID,125,VALID,0,
2013-08-03, 03:03:04,VALID,916.937,VALID,0,VALID,93.5698,VALID,0,VALID,17.6377,VALID,124,VALID,0,
2013-08-03, 03:04:04,VALID,916.936,VALID,0,VALID,93.2649,VALID,0,VALID,17.6377,VALID,125,VALID,0,
2013-08-03, 03:05:04,VALID,916.915,VALID,0,VALID,93.0362,VALID,0,VALID,17.6948,VALID,124,VALID,0,
2013-08-03, 03:06:04,VALID,916.9,VALID,0,VALID,92.8532,VALID,0,VALID,17.7741,VALID,124,VALID,0,
2013-08-03, 03:07:04,VALID,916.901,VALID,0,VALID,92.5254,VALID,0,VALID,17.8118,VALID,118,VALID,0,
2013-08-03, 03:08:04,VALID,916.862,VALID,0,VALID,92.19,VALID,0,VALID,17.8131,VALID,118,VALID,0,
2013-08-03, 03:09:04,VALID,916.864,VALID,0,VALID,92.251,VALID,0,VALID,17.8911,VALID,118,VALID,0,
2013-08-03, 03:10:04,VALID,916.844,VALID,0,VALID,92.1671,VALID,0,VALID,17.9301,VALID,118,VALID,0,
2013-08-03, 03:11:04,VALID,916.874,VALID,0,VALID,92.1823,VALID,0,VALID,17.9301,VALID,118,VALID,0,
2013-08-03, 03:12:04,VALID,916.873,VALID,0,VALID,92.0223,VALID,0,VALID,17.9301,VALID,118,VALID,0,
2013-08-03, 03:13:04,VALID,916.894,VALID,0,VALID,91.7783,VALID,0,VALID,17.8911,VALID,118,VALID,0,
2013-08-03, 03:14:04,VALID,916.889,VALID,0,VALID,91.8774,VALID,0,VALID,17.8897,VALID,118,VALID,0,
2013-08-03, 03:15:04,VALID,916.925,VALID,0,VALID,92.1442,VALID,0.107441,VALID,17.9301,VALID,118,VALID,0,
2013-08-03, 03:16:04,VALID,916.896,VALID,0,VALID,92.19,VALID,0,VALID,17.9301,VALID,118,VALID,0,
2013-08-03, 03:17:04,VALID,916.886,VALID,0,VALID,92.1976,VALID,0,VALID,17.9691,VALID,119,VALID,0,
2013-08-03, 03:18:04,VALID,916.899,VALID,0,VALID,92.0832,VALID,0.107441,VALID,17.9691,VALID,118,VALID,0,
2013-08-03, 03:19:04,VALID,916.905,VALID,0,VALID,91.9003,VALID,0,VALID,17.9886,VALID,118,VALID,0,
2013-08-03, 03:20:04,VALID,916.872,VALID,0,VALID,91.9689,VALID,0,VALID,17.9886,VALID,118,VALID,0,
2013-08-03, 03:21:04,VALID,916.892,VALID,0,VALID,91.8012,VALID,0,VALID,18.047,VALID,118,VALID,0,
2013-08-03, 03:22:04,VALID,916.885,VALID,0,VALID,91.3438,VALID,0,VALID,18.086,VALID,118,VALID,0,
2013-08-03, 03:23:04,VALID,916.901,VALID,0,VALID,90.8483,VALID,0,VALID,18.125,VALID,118,VALID,0,
2013-08-03, 03:24:04,VALID,916.883,VALID,0,VALID,90.2689,VALID,0,VALID,18.1445,VALID,118,VALID,0,
2013-08-03, 03:25:04,VALID,916.9,VALID,0,VALID,90.2155,VALID,0.107441,VALID,18.164,VALID,118,VALID,0,
2013-08-03, 03:26:04,VALID,916.88,VALID,0,VALID,90.0783,VALID,0,VALID,18.1835,VALID,113,VALID,0,
2013-08-03, 03:27:04,VALID,916.872,VALID,0,VALID,89.7886,VALID,0.107441,VALID,18.1445,VALID,110,VALID,0,
2013-08-03, 03:28:04,VALID,916.882,VALID,0,VALID,89.9792,VALID,0.107441,VALID,18.086,VALID,110,VALID,0,
2013-08-03, 03:29:04,VALID,916.895,VALID,0,VALID,90.246,VALID,0.107441,VALID,18.008,VALID,110,VALID,0,
2013-08-03, 03:30:04,VALID,916.873,VALID,0,VALID,90.4137,VALID,0.107441,VALID,17.9886,VALID,110,VALID,0,
2013-08-03, 03:31:04,VALID,916.853,VALID,0,VALID,90.7796,VALID,0,VALID,17.9691,VALID,110,VALID,0,
2013-08-03, 03:32:04,VALID,916.827,VALID,0,VALID,91.0083,VALID,0,VALID,17.9886,VALID,110,VALID,0,
2013-08-03, 03:33:04,VALID,916.86,VALID,0,VALID,91.1379,VALID,0,VALID,17.9691,VALID,110,VALID,0,
2013-08-03, 03:34:04,VALID,916.852,VALID,0,VALID,91.1227,VALID,0,VALID,18.0094,VALID,110,VALID,0,
2013-08-03, 03:35:04,VALID,916.831,VALID,0,VALID,91.1684,VALID,0,VALID,18.008,VALID,111,VALID,0,
2013-08-03, 03:36:04,VALID,916.835,VALID,0,VALID,90.8101,VALID,0,VALID,18.086,VALID,110,VALID,0,
2013-08-03, 03:37:04,VALID,916.84,VALID,0,VALID,90.3756,VALID,0,VALID,18.1264,VALID,110,VALID,0,
2013-08-03, 03:38:04,VALID,916.848,VALID,0,VALID,90.246,VALID,0.107441,VALID,18.1055,VALID,110,VALID,0,
2013-08-03, 03:39:04,VALID,916.859,VALID,0,VALID,90.2155,VALID,0.107441,VALID,18.125,VALID,110,VALID,0,
2013-08-03, 03:40:04,VALID,916.85,VALID,0,VALID,90.368,VALID,0,VALID,18.1459,VALID,110,VALID,0,
2013-08-03, 03:41:04,VALID,916.839,VALID,0,VALID,90.2994,VALID,0,VALID,18.1055,VALID,110,VALID,0,
2013-08-03, 03:42:04,VALID,916.825,VALID,0,VALID,90.5357,VALID,0,VALID,18.1055,VALID,110,VALID,0,
2013-08-03, 03:43:04,VALID,916.821,VALID,0,VALID,90.7949,VALID,0,VALID,18.125,VALID,110,VALID,0,
2013-08-03, 03:44:04,VALID,916.845,VALID,0,VALID,90.5052,VALID,0,VALID,18.203,VALID,110,VALID,0,
2013-08-03, 03:45:04,VALID,916.796,VALID,0,VALID,89.9639,VALID,0,VALID,18.2615,VALID,110,VALID,0,
2013-08-03, 03:46:04,VALID,916.785,VALID,0,VALID,89.5218,VALID,0.107441,VALID,18.338,VALID,110,VALID,0,
2013-08-03, 03:47:04,VALID,916.779,VALID,0,VALID,89.3769,VALID,0,VALID,18.3979,VALID,110,VALID,0,
2013-08-03, 03:48:04,VALID,916.755,VALID,0,VALID,88.9881,VALID,0,VALID,18.4564,VALID,110,VALID,0,
2013-08-03, 03:49:04,VALID,916.765,VALID,0,VALID,88.3173,VALID,0,VALID,18.4759,VALID,110,VALID,0,
2013-08-03, 03:50:04,VALID,916.775,VALID,0,VALID,88.4011,VALID,0.107441,VALID,18.4759,VALID,110,VALID,0,
2013-08-03, 03:51:04,VALID,916.757,VALID,0,VALID,88.2639,VALID,0,VALID,18.4369,VALID,110,VALID,0,
2013-08-03, 03:52:04,VALID,916.759,VALID,0,VALID,88.363,VALID,0.107441,VALID,18.3784,VALID,110,VALID,0,
2013-08-03, 03:53:04,VALID,916.764,VALID,0,VALID,88.4697,VALID,0.107441,VALID,18.3199,VALID,110,VALID,0,
2013-08-03, 03:54:04,VALID,916.766,VALID,0,VALID,88.6756,VALID,0,VALID,18.2809,VALID,110,VALID,0,
2013-08-03, 03:55:04,VALID,916.761,VALID,0,VALID,88.9881,VALID,0.107441,VALID,18.2615,VALID,110,VALID,0,
2013-08-03, 03:56:04,VALID,916.749,VALID,0,VALID,89.2245,VALID,0,VALID,18.242,VALID,110,VALID,0,
2013-08-03, 03:57:04,VALID,916.731,VALID,0,VALID,89.194,VALID,0,VALID,18.203,VALID,110,VALID,0,